Location: Amsterdam
(30.7274°N, 84.4357°W)
Time: 06:19:32
(UTC+00:00)

Tiros 1 despin weight - Pass Details

Date: 18 February 2026
Orbit: 556 x 593 km, 48.2° (Epoch: 13 March)

Event Time Altitude Azimuth Distance (km) Brightness Sun altitude
Rises 18:29:18 0° 206° (SSW) 2,749 ? 46.9°
Reaches altitude 10° 18:31:44 10° 196° (SSW) 1,849 ? 46.8°
Maximum altitude 18:35:29 32° 133° (SE) 979 ? 46.5°
Drops below altitude 10° 18:39:14 10° 70° (ENE) 1,839 ? 46.3°
Sets 18:41:39 0° 60° (ENE) 2,733 ? 46.2°
